Location: Unspecified
(51.0950°N, 12.9690°E)
Time: 22:47:43
(UTC+00:00)

Cosmos 1455 - Pass Details

Date: 28 October 2021
Orbit: 496 x 520 km, 82.5° (Epoch: 01 December)

Event Time Altitude Azimuth Distance (km) Brightness Sun altitude
Rises 16:38:26 0° 144° (SE) 2,616 5.5 -8.3°
Reaches altitude 10° 16:41:16 10° 121° (ESE) 1,731 4.4 -8.7°
Maximum altitude 16:43:28 15° 85° (E) 1,440 3.8 -9.0°
Drops below altitude 10° 16:45:40 10° 49° (NE) 1,732 4.3 -9.4°
Enters shadow 16:47:31 - 32° (NNE) 2,272 5.1 -9.7°
